Time,TemperatureF,DewpointF,PressureIn,WindDirection,WindDirectionDegrees,WindSpeedMPH,WindSpeedGustMPH,Humidity,HourlyPrecipIn,Conditions,Clouds,dailyrainin,SoftwareType,DateUTC
2013-02-21 00:01:00,29.0,23.0,29.90,NW,311,5.0,-999.0,78,-99.99,,,-99.99,,2013-02-21 07:01:00,
2013-02-21 00:11:00,29.0,23.0,29.91,NW,315,6.0,-999.0,78,-99.99,,,-99.99,,2013-02-21 07:11:00,
2013-02-21 00:21:00,29.0,23.0,29.91,NW,315,6.0,-999.0,78,-99.99,,,-99.99,,2013-02-21 07:21:00,
2013-02-21 00:31:00,29.0,22.0,29.91,WNW,286,4.0,-999.0,75,-99.99,,,-99.99,,2013-02-21 07:31:00,
2013-02-21 00:41:00,29.0,22.0,29.91,WNW,290,6.0,-999.0,74,-99.99,,,-99.99,,2013-02-21 07:41:00,
2013-02-21 00:52:00,29.0,22.0,29.91,WNW,290,6.0,-999.0,74,-99.99,,,-99.99,,2013-02-21 07:52:00,
2013-02-21 01:01:00,29.0,21.0,29.91,NW,315,8.0,-999.0,72,-99.99,,,-99.99,,2013-02-21 08:01:00,
2013-02-21 01:11:00,29.0,21.0,29.93,NW,307,4.0,-999.0,72,-99.99,,,-99.99,,2013-02-21 08:11:00,
2013-02-21 01:21:00,29.0,21.0,29.93,NW,307,4.0,-999.0,72,-99.99,,,-99.99,,2013-02-21 08:21:00,
2013-02-21 01:31:00,29.0,22.0,29.93,NW,308,1.0,-999.0,74,-99.99,,,-99.99,,2013-02-21 08:31:00,
2013-02-21 01:41:00,29.0,22.0,29.93,NW,308,1.0,-999.0,74,-99.99,,,-99.99,,2013-02-21 08:41:00,
2013-02-21 01:52:00,28.0,21.0,29.93,West,281,3.0,-999.0,74,-99.99,,,-99.99,,2013-02-21 08:52:00,
2013-02-21 02:01:00,28.0,20.0,29.94,West,275,6.0,-999.0,72,-99.99,,,-99.99,,2013-02-21 09:01:00,
2013-02-21 02:11:00,28.0,20.0,29.94,West,275,6.0,-999.0,72,-99.99,,,-99.99,,2013-02-21 09:11:00,
2013-02-21 02:22:00,29.0,21.0,29.94,West,273,3.0,-999.0,71,-99.99,,,-99.99,,2013-02-21 09:22:00,
2013-02-21 02:31:00,29.0,21.0,29.93,WNW,294,4.0,-999.0,71,-99.99,,,-99.99,,2013-02-21 09:31:00,
2013-02-21 02:41:00,29.0,21.0,29.93,WNW,294,4.0,-999.0,71,-99.99,,,-99.99,,2013-02-21 09:41:00,
2013-02-21 02:52:00,28.0,19.0,29.93,WNW,290,3.0,-999.0,69,-99.99,,,-99.99,,2013-02-21 09:52:00,
2013-02-21 03:01:00,28.0,20.0,29.95,SW,227,2.0,-999.0,73,-99.99,,,-99.99,,2013-02-21 10:01:00,
2013-02-21 03:11:00,28.0,20.0,29.95,SW,227,2.0,-999.0,73,-99.99,,,-99.99,,2013-02-21 10:11:00,
2013-02-21 03:21:00,27.0,20.0,29.95,SW,225,1.0,-999.0,76,-99.99,,,-99.99,,2013-02-21 10:21:00,
2013-02-21 03:31:00,26.0,20.0,29.95,SW,225,0.0,-999.0,77,-99.99,,,-99.99,,2013-02-21 10:31:00,
2013-02-21 03:41:00,26.0,20.0,29.95,SW,225,0.0,-999.0,77,-99.99,,,-99.99,,2013-02-21 10:41:00,
2013-02-21 03:51:00,26.0,20.0,29.95,SW,225,0.0,-999.0,77,-99.99,,,-99.99,,2013-02-21 10:51:00,
2013-02-21 04:00:00,24.0,18.0,29.96,SW,224,0.0,-999.0,78,-99.99,,,-99.99,,2013-02-21 11:00:00,
2013-02-21 04:10:00,24.0,18.0,29.96,SW,224,0.0,-999.0,78,-99.99,,,-99.99,,2013-02-21 11:10:00,
2013-02-21 04:21:00,24.0,18.0,29.96,SW,224,0.0,-999.0,78,-99.99,,,-99.99,,2013-02-21 11:21:00,
2013-02-21 04:31:00,23.0,17.0,29.97,SW,224,0.0,-999.0,78,-99.99,,,-99.99,,2013-02-21 11:31:00,
2013-02-21 04:41:00,23.0,17.0,29.97,SW,224,0.0,-999.0,78,-99.99,,,-99.99,,2013-02-21 11:41:00,
2013-02-21 04:51:00,22.0,16.0,29.98,SW,224,0.0,-999.0,77,-99.99,,,-99.99,,2013-02-21 11:51:00,
2013-02-21 05:01:00,21.0,15.0,29.98,SW,224,0.0,-999.0,76,-99.99,,,-99.99,,2013-02-21 12:01:00,
2013-02-21 05:11:00,21.0,15.0,29.98,SW,224,0.0,-999.0,76,-99.99,,,-99.99,,2013-02-21 12:11:00,
2013-02-21 05:21:00,20.0,14.0,29.99,SW,224,0.0,-999.0,77,-99.99,,,-99.99,,2013-02-21 12:21:00,
2013-02-21 05:32:00,19.0,14.0,30.00,SW,224,0.0,-999.0,79,-99.99,,,-99.99,,2013-02-21 12:32:00,
2013-02-21 05:42:00,21.0,16.0,30.01,SW,224,0.0,-999.0,82,-99.99,,,-99.99,,2013-02-21 12:42:00,
2013-02-21 05:52:00,21.0,16.0,30.01,SW,224,0.0,-999.0,82,-99.99,,,-99.99,,2013-02-21 12:52:00,
2013-02-21 06:01:00,21.0,17.0,30.01,SW,224,0.0,-999.0,83,-99.99,,,-99.99,,2013-02-21 13:01:00,
2013-02-21 06:12:00,21.0,17.0,30.01,SW,224,0.0,-999.0,83,-99.99,,,-99.99,,2013-02-21 13:12:00,
2013-02-21 06:22:00,21.0,16.0,30.01,SW,224,0.0,-999.0,82,-99.99,,,-99.99,,2013-02-21 13:22:00,
2013-02-21 06:31:00,20.0,15.0,30.01,SW,225,2.0,-999.0,81,-99.99,,,-99.99,,2013-02-21 13:31:00,
2013-02-21 06:41:00,20.0,15.0,30.01,SW,225,2.0,-999.0,81,-99.99,,,-99.99,,2013-02-21 13:41:00,
2013-02-21 06:52:00,20.0,15.0,30.02,SW,225,2.0,-999.0,81,-99.99,,,-99.99,,2013-02-21 13:52:00,
2013-02-21 07:01:00,20.0,15.0,30.03,SW,225,1.0,-999.0,81,-99.99,,,-99.99,,2013-02-21 14:01:00,
2013-02-21 07:11:00,20.0,15.0,30.03,SW,225,1.0,-999.0,81,-99.99,,,-99.99,,2013-02-21 14:11:00,
2013-02-21 07:21:00,20.0,15.0,30.04,SW,225,1.0,-999.0,81,-99.99,,,-99.99,,2013-02-21 14:21:00,
2013-02-21 07:31:00,20.0,15.0,30.05,SW,225,0.0,-999.0,81,-99.99,,,-99.99,,2013-02-21 14:31:00,
2013-02-21 07:41:00,20.0,15.0,30.05,SW,225,0.0,-999.0,81,-99.99,,,-99.99,,2013-02-21 14:41:00,
2013-02-21 07:52:00,21.0,17.0,30.07,SW,225,0.0,-999.0,83,-99.99,,,-99.99,,2013-02-21 14:52:00,
2013-02-21 08:01:00,23.0,19.0,30.07,SW,225,0.0,-999.0,83,-99.99,,,-99.99,,2013-02-21 15:01:00,
2013-02-21 08:12:00,23.0,19.0,30.07,SW,225,0.0,-999.0,83,-99.99,,,-99.99,,2013-02-21 15:12:00,
2013-02-21 08:21:00,25.0,21.0,30.07,SW,223,1.0,-999.0,84,-99.99,,,-99.99,,2013-02-21 15:21:00,
2013-02-21 08:31:00,29.0,22.0,30.07,SW,223,0.0,-999.0,76,-99.99,,,-99.99,,2013-02-21 15:31:00,
2013-02-21 08:41:00,29.0,22.0,30.07,SW,223,0.0,-999.0,76,-99.99,,,-99.99,,2013-02-21 15:41:00,
2013-02-21 08:52:00,31.0,23.0,30.08,SW,222,2.0,-999.0,71,-99.99,,,-99.99,,2013-02-21 15:52:00,
2013-02-21 09:01:00,31.0,22.0,30.08,SW,221,2.0,-999.0,70,-99.99,,,-99.99,,2013-02-21 16:01:00,
2013-02-21 09:12:00,32.0,23.0,30.08,South,188,4.0,-999.0,69,-99.99,,,-99.99,,2013-02-21 16:12:00,
2013-02-21 09:21:00,32.0,23.0,30.08,South,188,4.0,-999.0,69,-99.99,,,-99.99,,2013-02-21 16:21:00,
2013-02-21 09:31:00,32.0,23.0,30.08,SSE,150,4.0,-999.0,70,-99.99,,,-99.99,,2013-02-21 16:31:00,
2013-02-21 09:41:00,33.0,24.0,30.08,SSE,148,4.0,-999.0,69,-99.99,,,-99.99,,2013-02-21 16:41:00,
2013-02-21 09:52:00,33.0,24.0,30.08,SSE,148,4.0,-999.0,69,-99.99,,,-99.99,,2013-02-21 16:52:00,
2013-02-21 10:01:00,34.0,25.0,30.07,SSE,148,4.0,-999.0,68,-99.99,,,-99.99,,2013-02-21 17:01:00,
2013-02-21 10:11:00,35.0,26.0,30.07,SE,146,3.0,-999.0,68,-99.99,,,-99.99,,2013-02-21 17:11:00,
2013-02-21 10:21:00,35.0,26.0,30.07,SE,146,3.0,-999.0,68,-99.99,,,-99.99,,2013-02-21 17:21:00,
2013-02-21 10:32:00,36.0,26.0,30.08,SE,126,4.0,-999.0,67,-99.99,,,-99.99,,2013-02-21 17:32:00,
2013-02-21 10:41:00,36.0,26.0,30.08,SE,126,4.0,-999.0,67,-99.99,,,-99.99,,2013-02-21 17:41:00,
2013-02-21 10:52:00,36.0,27.0,30.07,SSE,148,5.0,-999.0,69,-99.99,,,-99.99,,2013-02-21 17:52:00,
2013-02-21 11:01:00,37.0,27.0,30.08,SE,138,4.0,-999.0,68,-99.99,,,-99.99,,2013-02-21 18:01:00,
2013-02-21 11:11:00,37.0,27.0,30.08,SE,138,4.0,-999.0,68,-99.99,,,-99.99,,2013-02-21 18:11:00,
2013-02-21 11:21:00,38.0,27.0,30.09,SE,137,4.0,-999.0,65,-99.99,,,-99.99,,2013-02-21 18:21:00,
2013-02-21 11:31:00,38.0,26.0,30.09,SE,134,3.0,-999.0,62,-99.99,,,-99.99,,2013-02-21 18:31:00,
2013-02-21 11:42:00,38.0,26.0,30.09,SE,134,3.0,-999.0,62,-99.99,,,-99.99,,2013-02-21 18:42:00,
2013-02-21 11:51:00,39.0,26.0,30.08,ESE,115,4.0,-999.0,60,-99.99,,,-99.99,,2013-02-21 18:51:00,
2013-02-21 12:01:00,39.0,25.0,30.07,ESE,115,3.0,-999.0,56,-99.99,,,-99.99,,2013-02-21 19:01:00,
2013-02-21 12:11:00,39.0,25.0,30.07,ESE,115,3.0,-999.0,56,-99.99,,,-99.99,,2013-02-21 19:11:00,
2013-02-21 12:21:00,41.0,29.0,30.06,ESE,119,3.0,-999.0,62,-99.99,,,-99.99,,2013-02-21 19:21:00,
2013-02-21 12:31:00,41.0,26.0,30.05,SE,138,3.0,-999.0,54,-99.99,,,-99.99,,2013-02-21 19:31:00,
2013-02-21 12:41:00,41.0,26.0,30.05,SE,138,3.0,-999.0,54,-99.99,,,-99.99,,2013-02-21 19:41:00,
2013-02-21 12:52:00,42.0,26.0,30.04,SE,134,1.0,-999.0,52,-99.99,,,-99.99,,2013-02-21 19:52:00,
2013-02-21 13:01:00,42.0,26.0,30.05,SE,130,2.0,-999.0,52,-99.99,,,-99.99,,2013-02-21 20:01:00,
2013-02-21 13:11:00,42.0,24.0,30.04,ESE,122,2.0,-999.0,49,-99.99,,,-99.99,,2013-02-21 20:11:00,
2013-02-21 13:21:00,42.0,24.0,30.04,ESE,122,2.0,-999.0,49,-99.99,,,-99.99,,2013-02-21 20:21:00,
2013-02-21 13:31:00,43.0,26.0,30.03,SSW,192,2.0,-999.0,50,-99.99,,,-99.99,,2013-02-21 20:31:00,
2013-02-21 13:41:00,43.0,26.0,30.03,SSW,192,2.0,-999.0,50,-99.99,,,-99.99,,2013-02-21 20:41:00,
2013-02-21 13:52:00,43.0,25.0,30.03,South,173,0.0,-999.0,49,-99.99,,,-99.99,,2013-02-21 20:52:00,
2013-02-21 14:02:00,44.0,26.0,30.03,SSE,151,1.0,-999.0,49,-99.99,,,-99.99,,2013-02-21 21:02:00,
2013-02-21 14:11:00,42.0,26.0,30.02,SE,134,1.0,-999.0,52,-99.99,,,-99.99,,2013-02-21 21:11:00,
2013-02-21 14:21:00,42.0,26.0,30.02,SE,134,1.0,-999.0,52,-99.99,,,-99.99,,2013-02-21 21:21:00,
2013-02-21 14:31:00,43.0,24.0,30.01,SE,132,2.0,-999.0,46,-99.99,,,-99.99,,2013-02-21 21:31:00,
2013-02-21 14:41:00,44.0,25.0,30.00,ESE,122,1.0,-999.0,46,-99.99,,,-99.99,,2013-02-21 21:41:00,
2013-02-21 14:52:00,44.0,25.0,30.00,ESE,122,1.0,-999.0,46,-99.99,,,-99.99,,2013-02-21 21:52:00,
2013-02-21 15:01:00,44.0,25.0,30.00,East,101,1.0,-999.0,46,-99.99,,,-99.99,,2013-02-21 22:01:00,
2013-02-21 15:11:00,44.0,25.0,30.00,East,101,1.0,-999.0,46,-99.99,,,-99.99,,2013-02-21 22:11:00,
2013-02-21 15:21:00,45.0,24.0,29.99,ESE,102,0.0,-999.0,44,-99.99,,,-99.99,,2013-02-21 22:21:00,
2013-02-21 15:31:00,45.0,25.0,30.00,SSW,202,1.0,-999.0,46,-99.99,,,-99.99,,2013-02-21 22:31:00,
2013-02-21 15:41:00,46.0,25.0,29.99,SSW,207,1.0,-999.0,44,-99.99,,,-99.99,,2013-02-21 22:41:00,
2013-02-21 15:52:00,46.0,25.0,29.99,SSW,207,1.0,-999.0,44,-99.99,,,-99.99,,2013-02-21 22:52:00,
2013-02-21 16:01:00,44.0,25.0,29.98,SSW,197,1.0,-999.0,46,-99.99,,,-99.99,,2013-02-21 23:01:00,
2013-02-21 16:11:00,44.0,25.0,29.98,SSW,197,1.0,-999.0,46,-99.99,,,-99.99,,2013-02-21 23:11:00,
2013-02-21 16:21:00,44.0,24.0,29.98,SSW,197,0.0,-999.0,45,-99.99,,,-99.99,,2013-02-21 23:21:00,
2013-02-21 16:31:00,46.0,26.0,29.98,WSW,253,1.0,-999.0,45,-99.99,,,-99.99,,2013-02-21 23:31:00,
2013-02-21 16:41:00,46.0,26.0,29.98,WSW,253,1.0,-999.0,45,-99.99,,,-99.99,,2013-02-21 23:41:00,
2013-02-21 16:52:00,44.0,25.0,29.97,WSW,254,0.0,-999.0,46,-99.99,,,-99.99,,2013-02-21 23:52:00,
2013-02-21 17:01:00,44.0,25.0,29.96,WSW,251,0.0,-999.0,46,-99.99,,,-99.99,,2013-02-22 00:01:00,
2013-02-21 17:11:00,44.0,25.0,29.96,WSW,251,0.0,-999.0,46,-99.99,,,-99.99,,2013-02-22 00:11:00,
2013-02-21 17:21:00,44.0,25.0,29.96,SSW,206,1.0,-999.0,47,-99.99,,,-99.99,,2013-02-22 00:21:00,
2013-02-21 17:31:00,44.0,24.0,29.97,SSW,205,0.0,-999.0,45,-99.99,,,-99.99,,2013-02-22 00:31:00,
2013-02-21 17:41:00,44.0,24.0,29.97,SSW,205,0.0,-999.0,45,-99.99,,,-99.99,,2013-02-22 00:41:00,
2013-02-21 17:52:00,45.0,24.0,29.97,SSW,208,1.0,-999.0,44,-99.99,,,-99.99,,2013-02-22 00:52:00,
2013-02-21 18:01:00,44.0,23.0,29.97,SSW,208,1.0,-999.0,43,-99.99,,,-99.99,,2013-02-22 01:01:00,
2013-02-21 18:11:00,44.0,23.0,29.97,SSW,208,1.0,-999.0,43,-99.99,,,-99.99,,2013-02-22 01:11:00,
2013-02-21 18:21:00,43.0,24.0,29.97,SSW,208,0.0,-999.0,47,-99.99,,,-99.99,,2013-02-22 01:21:00,
2013-02-21 18:32:00,41.0,27.0,29.97,SSW,208,0.0,-999.0,58,-99.99,,,-99.99,,2013-02-22 01:32:00,
2013-02-21 18:42:00,41.0,27.0,29.97,SSW,208,0.0,-999.0,58,-99.99,,,-99.99,,2013-02-22 01:42:00,
2013-02-21 18:52:00,39.0,24.0,29.98,SSW,209,3.0,-999.0,55,-99.99,,,-99.99,,2013-02-22 01:52:00,
2013-02-21 19:01:00,38.0,25.0,29.98,SSW,209,2.0,-999.0,58,-99.99,,,-99.99,,2013-02-22 02:01:00,
2013-02-21 19:11:00,38.0,25.0,29.98,SSW,209,2.0,-999.0,58,-99.99,,,-99.99,,2013-02-22 02:11:00,
2013-02-21 19:21:00,37.0,25.0,29.98,SSW,209,1.0,-999.0,61,-99.99,,,-99.99,,2013-02-22 02:21:00,
2013-02-21 19:31:00,36.0,25.0,29.98,SSW,209,1.0,-999.0,63,-99.99,,,-99.99,,2013-02-22 02:31:00,
2013-02-21 19:42:00,37.0,25.0,29.99,SSW,209,0.0,-999.0,61,-99.99,,,-99.99,,2013-02-22 02:42:00,
2013-02-21 19:52:00,37.0,25.0,29.99,SSW,209,0.0,-999.0,61,-99.99,,,-99.99,,2013-02-22 02:52:00,
2013-02-21 20:01:00,37.0,25.0,29.99,SSW,210,1.0,-999.0,62,-99.99,,,-99.99,,2013-02-22 03:01:00,
2013-02-21 20:11:00,37.0,25.0,29.99,SSW,210,1.0,-999.0,62,-99.99,,,-99.99,,2013-02-22 03:11:00,
2013-02-21 20:21:00,36.0,26.0,30.00,SSW,210,2.0,-999.0,67,-99.99,,,-99.99,,2013-02-22 03:21:00,
2013-02-21 20:31:00,35.0,26.0,30.00,SSW,210,2.0,-999.0,69,-99.99,,,-99.99,,2013-02-22 03:31:00,
2013-02-21 20:41:00,35.0,26.0,30.00,SSW,210,2.0,-999.0,69,-99.99,,,-99.99,,2013-02-22 03:41:00,
2013-02-21 20:52:00,35.0,27.0,30.00,SSW,210,1.0,-999.0,71,-99.99,,,-99.99,,2013-02-22 03:52:00,
2013-02-21 21:01:00,35.0,27.0,30.01,SSW,210,1.0,-999.0,71,-99.99,,,-99.99,,2013-02-22 04:01:00,
2013-02-21 21:11:00,35.0,27.0,30.01,SSW,210,2.0,-999.0,72,-99.99,,,-99.99,,2013-02-22 04:11:00,
2013-02-21 21:21:00,35.0,27.0,30.01,SSW,210,2.0,-999.0,72,-99.99,,,-99.99,,2013-02-22 04:21:00,
2013-02-21 21:31:00,35.0,27.0,30.01,SSW,210,0.0,-999.0,72,-99.99,,,-99.99,,2013-02-22 04:31:00,
2013-02-21 21:41:00,35.0,27.0,30.01,SSW,210,0.0,-999.0,72,-99.99,,,-99.99,,2013-02-22 04:41:00,
2013-02-21 21:51:00,35.0,27.0,30.01,SSW,210,1.0,-999.0,71,-99.99,,,-99.99,,2013-02-22 04:51:00,
2013-02-21 22:01:00,34.0,26.0,30.02,SSW,210,1.0,-999.0,71,-99.99,,,-99.99,,2013-02-22 05:01:00,
2013-02-21 22:11:00,34.0,26.0,30.02,SSW,210,1.0,-999.0,71,-99.99,,,-99.99,,2013-02-22 05:11:00,
2013-02-21 22:21:00,34.0,26.0,30.02,SSW,210,2.0,-999.0,71,-99.99,,,-99.99,,2013-02-22 05:21:00,
2013-02-21 22:32:00,33.0,25.0,30.02,SSW,210,2.0,-999.0,71,-99.99,,,-99.99,,2013-02-22 05:32:00,
2013-02-21 22:41:00,33.0,25.0,30.02,SSW,210,2.0,-999.0,71,-99.99,,,-99.99,,2013-02-22 05:41:00,
2013-02-21 22:52:00,33.0,25.0,30.01,SSW,210,3.0,-999.0,72,-99.99,,,-99.99,,2013-02-22 05:52:00,
2013-02-21 23:01:00,32.0,24.0,30.02,SSW,210,2.0,-999.0,73,-99.99,,,-99.99,,2013-02-22 06:01:00,
2013-02-21 23:11:00,32.0,24.0,30.02,SSW,210,2.0,-999.0,73,-99.99,,,-99.99,,2013-02-22 06:11:00,
2013-02-21 23:21:00,32.0,24.0,30.01,SSW,210,2.0,-999.0,73,-99.99,,,-99.99,,2013-02-22 06:21:00,
2013-02-21 23:31:00,32.0,24.0,30.01,SSW,210,2.0,-999.0,73,-99.99,,,-99.99,,2013-02-22 06:31:00,
2013-02-21 23:41:00,32.0,24.0,30.01,SSW,210,2.0,-999.0,73,-99.99,,,-99.99,,2013-02-22 06:41:00,
2013-02-21 23:52:00,32.0,24.0,30.01,SSW,210,3.0,-999.0,73,-99.99,,,-99.99,,2013-02-22 06:52:00,